Showing default

CENTAURI-1, 43809

Orbit data source: Space-Track

CENTAURI-1, 43809 is a payload satellite owned by Fleet Space (AU) in SSO that was launched on Mon, 03 Dec 2018 UTC via an FALCON 9 launch vehicle from the Air Force Western Test Range (AFWTR). Payload-class satellites include a variety of spacecraft equipped with specific instruments for various scientific and technological missions. These include communications satellites like Starlink; space stations such as the ISS; scientific satellites like the Hubble; Earth observation satellites from companies like Planet Labs, Umbra, and HawkEye 360; GPS; miniature CubeSats for education and research; and military/defense satellites.

Loading next visibility...
Identifier
43809, 2018-099BD
Orbit
SSO
Country
Flag of AUAU / AUS
Related business
Manufacturer
Fleet Space
Mission
Operational Commercial Communications
Bus & Motor
CUBESAT 3U, Unknown motor
Mass
5 kg wet, 5 kg dry
Launch date (UTC)
2018-12-03 (8 years ago)
Launch vehicle
FALCON 9
Launch site
Air Force Western Test Range (AFWTR)
Object type
Payload
Rocket body
Debris
Shape & HBR
Box + 2 Pan, 0.2 m
Radar Cross Section
0.035 m², Medium (>0.1 m² and < 1m²)

Expand to show TLE details & history
Last TLE update: 23 hours ago

TLE from 23 hours ago
0 CENTAURI-1
1 43809U 18099BD  26235.56747482  .00004722  00000-0  24194-3 0  9990
2 43809  97.4172 285.8460 0015710  94.0648 266.2381 15.16954148422712
Epoch: 2026-08-23T13:37Z
TLE epoch observation values (Epoch: 2026-08-23T13:37:09.824Z)
Latitude
-0.00007°
Longitude
109.6934°
Altitude
518.866 km
Speed
7.604 km/s
True Right ascension
19h 03m 23s
True Declination
0° 00' 00"
Sunlit
Object was in full shadow at epoch
Visualization orbit readout
Latitude
Unknown
Longitude
Unknown
Altitude
Unknown
Speed
Unknown
Apparent Right ascension
Unknown
Apparent Declination
Unknown
Sunlit
N/A
Visualization observer readout
Local Sidereal Time
04:04:59
Azimuth
Unknown
Elevation
Unknown
Doppler factor
Unknown
Orbital elements
Apogee altitude
522.847 km
Perigee altitude
501.198 km
Semi-major axis
6,890.16 km
Eccentricity
0.00157
Inclination
97.4172°
RAAN
285.846°
Arg. of periapsis
94.0648°
True anomaly
266.05849°
Mean anomaly
266.2381°
Eccentric anomaly
266.14829°
Mean motion
3.79489 °/min
Orbital period
94.86 mins
BSTAR
0.00024194
Loading maneuver chart data...
Computing Atmospheric mass density...
Loading historical data...
Loading historical data...
Loading historical data...
Loading historical data...
Loading historical data...
Loading historical data...
Loading historical data...

Documentation

Showing up to 5 results
|